• MPC Preparation (Info)

  • MPEC 2019-B99 : 2019 BV1

    The following Minor Planet Electronic Circular may be linked-to from your own Web pages, but must not otherwise be redistributed electronically.

    A form allowing access to any MPEC is at the bottom of this page.


    Read MPEC 2019-B98 Read MPEC 2019-B100


    M.P.E.C. 2019-B99                                Issued 2019 Jan. 26, 21:51 UT
    
         The Minor Planet Electronic Circulars contain information on unusual
             minor planets and routine data on comets.  They are published
        on behalf of Division F of the International Astronomical Union by the
              Minor Planet Center, Smithsonian Astrophysical Observatory,
                              Cambridge, MA 02138, U.S.A.
    
                 Prepared using the Tamkin Foundation Computer Network
    
                                  MPC@CFA.HARVARD.EDU
                URL https://www.minorplanetcenter.net/    ISSN 1523-6714
    
                                       2019 BV1
    
    Observations:
         K19B01V* C2019 01 25.39271 09 38 08.07 +23 13 52.3          18.8 GVEB099703
         K19B01V  C2019 01 25.39799 09 37 59.50 +23 20 42.4          18.1 GVEB099703
         K19B01V  C2019 01 25.40327 09 37 51.15 +23 27 26.2                VEB099703
         K19B01V  C2019 01 25.40855 09 37 42.74 +23 34 05.5          17.4 GVEB099703
         K19B01V  C2019 01 25.53725 09 35 14.82 +25 41 11.3          18.0 GVEB099703
         K19B01V  C2019 01 25.53783 09 35 14.50 +25 41 40.8                VEB099703
         K19B01V  C2019 01 25.53812 09 35 14.27 +25 41 52.5          17.9 GVEB099703
         K19B01V KC2019 01 25.85014609 35 21.22 +28 37 51.7          18.9 GVEB099L01
         K19B01V KC2019 01 25.85133409 35 20.57 +28 38 22.0          19.0 GVEB099L01
         K19B01V KC2019 01 25.85253309 35 19.94 +28 38 52.7          19.0 GVEB099L01
         K19B01V KC2019 01 25.85373109 35 19.30 +28 39 23.4          19.1 GVEB099L01
         K19B01V KC2019 01 25.85491709 35 18.68 +28 39 53.8          19.1 GVEB099L01
         K19B01V KC2019 01 25.85610509 35 18.03 +28 40 23.8          19.0 GVEB099L01
         K19B01V KC2019 01 25.92700 09 34 41.14 +29 08 14.8          18.7  VEB099104
         K19B01V KC2019 01 25.93123 09 34 38.73 +29 09 46.3                VEB099104
         K19B01V KC2019 01 25.93546 09 34 36.23 +29 11 15.7          18.8  VEB099104
         K19B01V KC2019 01 25.94642109 34 35.01 +29 12 33.3          19.0 GVEB099J95
         K19B01V KC2019 01 25.95460009 34 30.82 +29 15 22.5          19.2 GVEB099J95
         K19B01V KC2019 01 25.96406909 34 26.01 +29 18 36.3          19.0 GVEB099J95
         K19B01V  C2019 01 26.40653 09 32 27.99 +31 03 17.9          19.9 GVEB099I52
         K19B01V  C2019 01 26.40694 09 32 27.84 +31 03 21.3          20.0 GVEB099I52
    
    Observer details:
    104 San Marcello Pistoiese.  Observers P. Bacci, M. Maestripieri.  Measurers
        P. Bacci, L. Tesi, G. Fagioli.  0.60-m reflector + CCD.
    703 Catalina Sky Survey.  Observer H. Groeller.  Measurers B. M. Africano,
        E. J. Christensen, G. A. Farneth, D. C. Fuls, A. R. Gibbs, A. D. Grauer,
        H. Groeller, R. A. Kowalski, S. M. Larson, G. J. Leonard, T. A. Pruyne,
        R. L. Seaman, F. C. Shelly.  0.68-m Schmidt + 10K CCD.
    I52 Steward Observatory, Mt. Lemmon Station.  Observer B. M. Africano.
        Measurers B. M. Africano, E. J. Christensen, G. A. Farneth, D. C. Fuls,
        A. R. Gibbs, A. D. Grauer, H. Groeller, R. A. Kowalski, S. M. Larson,
        G. J. Leonard, T. A. Pruyne, R. L. Seaman, F. C. Shelly.  1.0-m reflector
        + CCD.
    J95 Great Shefford.  Observer P. Birtwhistle.  0.41-m f/6.3
        Schmidt-Cassegrain + CCD.
    L01 Visnjan Observatory, Tican.  Observer K. Korlevic.  1.0-m f/2.9 reflector
        + CCD.
    
    Orbital elements:
    2019 BV1                                                 Earth MOID = 0.0009 AU
    Epoch 2019 Apr. 27.0 TT = JDT 2458600.5                 MPC
    M  67.15807              (2000.0)            P               Q
    n   0.48707502     Peri.  290.39038     +0.56498137     -0.81661786
    a   1.5998238      Node   124.65274     +0.80039143     +0.50767555
    e   0.5207998      Incl.    8.24944     +0.20042357     +0.27459209
    P   2.02           H   28.8           G   0.15           U   6
    Residuals in seconds of arc
    190125 703  0.4-  0.4+    190125 L01  0.2+  0.6+    190125 104  0.4+  0.8+
    190125 703 (0.6+  4.7-)   190125 L01  0.0   0.3+    190125 104  0.4-  0.1+
    190125 703 (2.1+  7.3-)   190125 L01  0.1+  0.3+    190125 J95  0.1+  0.0
    190125 703 (0.4+  6.0-)   190125 L01  0.1+  0.3+    190125 J95  0.3-  0.7-
    190125 703 (1.2-  3.6-)   190125 L01  0.3+  0.5+    190125 J95  0.0   0.2+
    190125 703  0.4+  1.3-    190125 L01  0.2+  0.2+    190126 I52  0.1-  0.0
    190125 703 (0.3+  3.1-)   190125 104  0.0   0.4+    190126 I52  0.0   0.3-
    
    Ephemeris:
    2019 BV1                 a,e,i = 1.60, 0.52, 8                   q = 0.7666
    Date    TT    R. A. (2000) Decl.     Delta      r     Elong.  Phase     V
    2018 12 27    21 13 09.8 -32 43 16   0.2513  0.8031    38.8   129.9    31.0
    ...
    2019 01 11    21 27 10.5 -33 38 15   0.1157  0.8839    28.8   147.5    31.8
    ...
    2019 01 19    21 29 23.0 -34 30 46   0.04834 0.9398    23.9   154.9    31.6
    ...
    2019 01 25    09 55 51.4 -04 52 40   0.0014050.9856   147.5    32.4    15.9
    2019 01 26    09 33 52.2 +29 36 04   0.0093360.9934   162.2    17.6    19.6
    2019 01 27    09 31 44.6 +32 11 41   0.01752 1.0012   161.5    18.2    21.0
    ...
    2019 02 02    09 29 18.9 +34 15 14   0.06705 1.0492   161.6    17.3    23.9
    ...
    2019 02 10    09 28 11.9 +34 12 36   0.1351  1.1148   160.4    17.3    25.6
    ...
    2019 02 25    09 29 05.7 +32 53 45   0.2737  1.2391   152.5    21.6    27.5
    
    A. U. Tomatic                (C) Copyright 2019 MPC           M.P.E.C. 2019-B99
    

    Read MPEC 2019-B98 Read MPEC 2019-B100


    MPEC number:

    Enter an MPEC number in one of the following forms:

    • 1997-B01 (the full form)
    • J97B01 (the packed version of the full form)
    • B01 (the abbreviated form)